Location: Nairn
(57.5833°N, 3.8667°W)
Time: 16:35:47
(UTC+00:00)

Cosmos 1766 - Pass Details

Date: 07 August 2020
Orbit: 522 x 543 km, 82.5° (Epoch: 23 September)

Event Time Altitude Azimuth Distance (km) Brightness Sun altitude
Exits shadow 02:26:10 14° 181° (S) 1,526 5.1 -11.7°
Maximum altitude 02:29:25 69° 100° (E) 571 3.4 -11.5°
Drops below altitude 10° 02:33:19 10° 17° (NNE) 1,784 7.3 -11.2°
Sets 02:35:29 0° 15° (NNE) 2,676 8.4 -11.0°
